Location: La Ronge
(55.1000°N, 105.3000°W)
Time: 10:04:05
(UTC-06:00)

Daily predictions for brighter satellites

Satellite Brightness Start Highest point End
(mag) Time Altitude Azimuth Time Altitude Azimuth Time Altitude Azimuth
Terra 1.9 22:34:42 10° SSE 22:39:28 84° ENE 22:44:16 10° NNW
Cosmos 1464 Rocket 4.2 22:37:13 10° N 22:43:23 66° ENE 22:49:33 10° SSE
Cosmos 1356 3.4 22:41:32 10° SSW 22:45:02 88° E 22:48:34 10° NNE
H-2A R/B 2.1 22:42:06 10° SSE 22:46:21 77° ENE 22:50:33 10° NNW
Cosmos 1743 Rocket 4.1 22:44:15 10° SSW 22:48:32 60° WNW 22:52:50 10° N
Cosmos 1869 3.5 22:46:58 10° N 22:50:55 62° ENE 22:54:48 10° SSE
SME Rocket 3.8 22:49:14 10° SE 22:53:23 59° ENE 22:59:15 10° NNW
Cosmos 1538 Rocket 4.4 22:51:09 10° NNW 22:56:31 63° ENE 23:01:51 10° SE
Cosmos 1626 2.1 22:53:37 10° S 22:57:21 90° NW 23:01:07 10° NNE
CZ-3B DEB 4.1 22:47:03 10° W 22:58:14 86° SSW 23:11:12 10° ESE
Cosmos 1354 Rocket 4.1 22:53:36 10° SSW 22:58:46 65° ESE 23:03:58 10° NNE
Cosmos 1486 Rocket 4.4 23:02:08 10° SW 23:07:25 70° WNW 23:12:46 10° NNE
CZ-4C R/B 3.1 23:03:52 10° S 23:08:31 29° ESE 23:13:42 10° ENE
Cosmos 1833 Rocket 4.1 23:04:26 10° NNW 23:09:33 33° NE 23:14:38 10° ESE
Cosmos 1703 3.6 23:07:03 10° SSW 23:11:02 70° WNW 23:15:02 10° N
Cosmos 1400 Rocket 4.3 23:08:39 10° SE 23:11:59 24° E 23:15:21 10° NE
Cosmos 773 Rocket 4.2 23:11:37 10° NNW 23:16:53 68° ENE 23:22:07 10° SE
CZ-4C R/B 3.7 23:12:51 11° SSE 23:17:08 76° ENE 23:21:37 10° NNW
DMSP B5D2-2 4.2 23:13:24 10° NNE 23:18:40 83° WNW 23:23:53 10° SSW
USA 234 3.6 23:13:20 10° ENE 23:19:29 41° SE 23:25:37 10° SSW
Cosmos 2242 Rocket 3.8 23:14:54 10° N 23:19:30 66° ENE 23:23:47 12° SSE
Cosmos 2151 4.0 23:15:44 10° SSW 23:19:54 47° WNW 23:24:06 10° N
Spot 4 4.0 23:16:01 10° SSE 23:20:54 80° WSW 23:25:48 10° NNW
Cosmos 2278 Rocket 3.9 23:18:44 10° SE 23:22:02 16° E 23:25:19 10° ENE
Sich 1 3.1 23:20:21 10° S 23:24:32 60° E 23:28:47 10° NNE
SL-19 R/B 4.2 23:19:20 10° NNE 23:24:41 72° ESE 23:30:15 10° S
CZ-2C R/B 3.8 23:20:01 10° SE 23:25:33 50° ENE 23:30:51 10° N
ATLAS 5 CENTAUR R/B 3.5 23:23:08 10° W 23:27:56 41° NNW 23:33:17 10° NE
Cosmos 2263 Rocket 2.5 23:23:51 10° SW 23:29:26 74° NW 23:35:05 10° NNE
Tsikada Rocket 4.4 23:23:57 10° SSE 23:29:58 51° E 23:36:03 10° NNE
Cosmos 1707 Rocket 4.4 23:33:52 10° NNW 23:38:11 47° W 23:42:28 10° SSW
Abrixas 3.7 23:39:02 10° SW 23:41:03 19° S 23:42:06 15° SE
deb Chang Zheng 4 3.6 23:37:12 10° NNE 23:41:37 90° NW 23:46:01 10° SSW
CZ-4B R/B 3.6 23:38:08 10° NNE 23:43:27 72° ESE 23:48:39 10° S
Cosmos 1680 Rocket 3.9 23:40:26 10° NNW 23:45:41 60° ENE 23:50:52 10° SE
Cosmos 1455 4.3 23:44:56 10° NW 23:47:53 21° W 23:50:48 10° SW
Cosmos 2082 Rocket 2.9 23:42:26 10° NNW 23:47:55 50° NE 23:53:23 10° ESE
COSMOS 2406 3.8 23:42:45 10° NW 23:48:10 47° WSW 23:53:07 12° S
Cosmos 292 Rocket 4.4 23:50:03 10° NW 23:54:37 46° WSW 23:58:39 13° S
ALOS 2 2.9 23:50:56 13° SSE 23:54:45 62° ENE 23:59:06 10° N
